Year,Month,Day,Hour,Minute,Value (Times are PST for temperature in C)
2014,09,24,00,00,14.80
2014,09,24,00,01,14.80
2014,09,24,00,02,14.90
2014,09,24,00,03,14.90
2014,09,24,00,04,14.90
2014,09,24,00,05,14.90
2014,09,24,00,06,14.90
2014,09,24,00,07,14.90
2014,09,24,00,08,14.80
2014,09,24,00,09,14.80
2014,09,24,00,10,14.80
2014,09,24,00,11,14.80
2014,09,24,00,12,14.80
2014,09,24,00,13,14.80
2014,09,24,00,14,14.80
2014,09,24,00,15,14.80
2014,09,24,00,16,14.80
2014,09,24,00,17,14.80
2014,09,24,00,18,14.80
2014,09,24,00,19,14.70
2014,09,24,00,20,14.70
2014,09,24,00,21,14.70
2014,09,24,00,22,14.70
2014,09,24,00,23,14.70
2014,09,24,00,24,14.70
2014,09,24,00,25,14.70
2014,09,24,00,26,14.70
2014,09,24,00,27,14.70
2014,09,24,00,28,14.70
2014,09,24,00,29,14.70
2014,09,24,00,30,14.70
2014,09,24,00,31,14.60
2014,09,24,00,32,14.60
2014,09,24,00,33,14.60
2014,09,24,00,34,14.60
2014,09,24,00,35,14.60
2014,09,24,00,36,14.60
2014,09,24,00,37,14.60
2014,09,24,00,38,14.60
2014,09,24,00,39,14.50
2014,09,24,00,40,14.50
2014,09,24,00,41,14.50
2014,09,24,00,42,14.50
2014,09,24,00,43,14.50
2014,09,24,00,44,14.50
2014,09,24,00,45,14.50
2014,09,24,00,46,14.50
2014,09,24,00,47,14.50
2014,09,24,00,48,14.50
2014,09,24,00,49,14.40
2014,09,24,00,50,14.40
2014,09,24,00,51,14.40
2014,09,24,00,52,14.40
2014,09,24,00,53,14.40
2014,09,24,00,54,14.40
2014,09,24,00,55,14.40
2014,09,24,00,56,14.40
2014,09,24,00,57,14.40
2014,09,24,00,58,14.40
2014,09,24,00,59,14.40
2014,09,24,01,00,14.40
2014,09,24,01,01,14.40
2014,09,24,01,02,14.40
2014,09,24,01,03,14.40
2014,09,24,01,04,14.40
2014,09,24,01,05,14.40
2014,09,24,01,06,14.40
2014,09,24,01,07,14.40
2014,09,24,01,08,14.40
2014,09,24,01,09,14.40
2014,09,24,01,10,14.40
2014,09,24,01,11,14.30
2014,09,24,01,12,14.30
2014,09,24,01,13,14.30
2014,09,24,01,14,14.30
2014,09,24,01,15,14.30
2014,09,24,01,16,14.30
2014,09,24,01,17,14.30
2014,09,24,01,18,14.30
2014,09,24,01,19,14.30
2014,09,24,01,20,14.30
2014,09,24,01,21,14.30
2014,09,24,01,22,14.30
2014,09,24,01,23,14.30
2014,09,24,01,24,14.30
2014,09,24,01,25,14.30
2014,09,24,01,26,14.30
2014,09,24,01,27,14.30
2014,09,24,01,28,14.30
2014,09,24,01,29,14.30
2014,09,24,01,30,14.30
2014,09,24,01,31,14.30
2014,09,24,01,32,14.30
2014,09,24,01,33,14.30
2014,09,24,01,34,14.30
2014,09,24,01,35,14.30
2014,09,24,01,36,14.30
2014,09,24,01,37,14.30
2014,09,24,01,38,14.30
2014,09,24,01,39,14.30
2014,09,24,01,40,14.30
2014,09,24,01,41,14.30
2014,09,24,01,42,14.40
2014,09,24,01,43,14.40
2014,09,24,01,44,14.40
2014,09,24,01,45,14.40
2014,09,24,01,46,14.50
2014,09,24,01,47,14.50
2014,09,24,01,48,14.50
2014,09,24,01,49,14.60
2014,09,24,01,50,14.60
2014,09,24,01,51,14.60
2014,09,24,01,52,14.60
2014,09,24,01,53,14.70
2014,09,24,01,54,14.70
2014,09,24,01,55,14.70
2014,09,24,01,56,14.70
2014,09,24,01,57,14.70
2014,09,24,01,58,14.80
2014,09,24,01,59,14.80
2014,09,24,02,00,14.80
2014,09,24,02,01,14.80
2014,09,24,02,02,14.80
2014,09,24,02,03,14.80
2014,09,24,02,04,14.90
2014,09,24,02,05,14.90
2014,09,24,02,06,14.90
2014,09,24,02,07,14.90
2014,09,24,02,08,14.90
2014,09,24,02,09,14.90
2014,09,24,02,10,14.90
2014,09,24,02,11,14.90
2014,09,24,02,12,14.90
2014,09,24,02,13,14.90
2014,09,24,02,14,14.90
2014,09,24,02,15,15.00
2014,09,24,02,16,15.00
2014,09,24,02,17,15.00
2014,09,24,02,18,15.00
2014,09,24,02,19,15.00
2014,09,24,02,20,15.00
2014,09,24,02,21,15.00
2014,09,24,02,22,15.10
2014,09,24,02,23,15.10
2014,09,24,02,24,15.10
2014,09,24,02,25,15.10
2014,09,24,02,26,15.10
2014,09,24,02,27,15.10
2014,09,24,02,28,15.10
2014,09,24,02,29,15.20
2014,09,24,02,30,15.20
2014,09,24,02,31,15.20
2014,09,24,02,32,15.20
2014,09,24,02,33,15.20
2014,09,24,02,34,15.20
2014,09,24,02,35,15.20
2014,09,24,02,36,15.20
2014,09,24,02,37,15.20
2014,09,24,02,38,15.20
2014,09,24,02,39,15.30
2014,09,24,02,40,15.30
2014,09,24,02,41,15.30
2014,09,24,02,42,15.30
2014,09,24,02,43,15.30
2014,09,24,02,44,15.30
2014,09,24,02,45,15.40
2014,09,24,02,46,15.40
2014,09,24,02,47,15.40
2014,09,24,02,48,15.40
2014,09,24,02,49,15.40
2014,09,24,02,50,15.40
2014,09,24,02,51,15.40
2014,09,24,02,52,15.40
2014,09,24,02,53,15.40
2014,09,24,02,54,15.40
2014,09,24,02,55,15.50
2014,09,24,02,56,15.50
2014,09,24,02,57,15.50
2014,09,24,02,58,15.50
2014,09,24,02,59,15.50
2014,09,24,03,00,15.50
2014,09,24,03,01,15.50
2014,09,24,03,02,15.60
2014,09,24,03,03,15.60
2014,09,24,03,04,15.60
2014,09,24,03,05,15.60
2014,09,24,03,06,15.60
2014,09,24,03,07,15.60
2014,09,24,03,08,15.60
2014,09,24,03,09,15.60
2014,09,24,03,10,15.60
2014,09,24,03,11,15.70
2014,09,24,03,12,15.70
2014,09,24,03,13,15.70
2014,09,24,03,14,15.70
2014,09,24,03,15,15.70
2014,09,24,03,16,15.70
2014,09,24,03,17,15.70
2014,09,24,03,18,15.70
2014,09,24,03,19,15.70
2014,09,24,03,20,15.70
2014,09,24,03,21,15.70
2014,09,24,03,22,15.70
2014,09,24,03,23,15.70
2014,09,24,03,24,15.70
2014,09,24,03,25,15.70
2014,09,24,03,26,15.70
2014,09,24,03,27,15.70
2014,09,24,03,28,15.70
2014,09,24,03,29,15.80
2014,09,24,03,30,15.70
2014,09,24,03,31,15.80
2014,09,24,03,32,15.80
2014,09,24,03,33,15.80
2014,09,24,03,34,15.80
2014,09,24,03,35,15.80
2014,09,24,03,36,15.80
2014,09,24,03,37,15.80
2014,09,24,03,38,15.70
2014,09,24,03,39,15.70
2014,09,24,03,40,15.70
2014,09,24,03,41,15.80
2014,09,24,03,42,15.80
2014,09,24,03,43,15.80
2014,09,24,03,44,15.80
2014,09,24,03,45,15.80
2014,09,24,03,46,15.80
2014,09,24,03,47,15.80
2014,09,24,03,48,15.80
2014,09,24,03,49,15.90
2014,09,24,03,50,15.80
2014,09,24,03,51,15.80
2014,09,24,03,52,15.90
2014,09,24,03,53,15.90
2014,09,24,03,54,15.90
2014,09,24,03,55,15.90
2014,09,24,03,56,15.90
2014,09,24,03,57,15.90
2014,09,24,03,58,15.90
2014,09,24,03,59,15.90
2014,09,24,04,00,15.90
2014,09,24,04,01,15.90
2014,09,24,04,02,15.90
2014,09,24,04,03,15.90
2014,09,24,04,04,15.90
2014,09,24,04,05,15.90
2014,09,24,04,06,15.90
2014,09,24,04,07,15.90
2014,09,24,04,08,15.90
2014,09,24,04,09,15.90
2014,09,24,04,10,15.90
2014,09,24,04,11,16.00
2014,09,24,04,12,16.00
2014,09,24,04,13,16.00
2014,09,24,04,14,16.00
2014,09,24,04,15,16.00
2014,09,24,04,16,15.90
2014,09,24,04,17,15.90
2014,09,24,04,18,15.90
2014,09,24,04,19,15.90
2014,09,24,04,20,15.90
2014,09,24,04,21,15.90
2014,09,24,04,22,15.90
2014,09,24,04,23,15.90
2014,09,24,04,24,16.00
2014,09,24,04,25,16.00
2014,09,24,04,26,16.00
2014,09,24,04,27,16.00
2014,09,24,04,28,16.00
2014,09,24,04,29,16.00
2014,09,24,04,30,16.00
2014,09,24,04,31,16.00
2014,09,24,04,32,16.10
2014,09,24,04,33,16.10
2014,09,24,04,34,16.10
2014,09,24,04,35,16.10
2014,09,24,04,36,16.10
2014,09,24,04,37,16.10
2014,09,24,04,38,16.10
2014,09,24,04,39,16.10
2014,09,24,04,40,16.10
2014,09,24,04,41,16.10
2014,09,24,04,42,16.00
2014,09,24,04,43,16.00
2014,09,24,04,44,16.00
2014,09,24,04,45,16.10
2014,09,24,04,46,16.10
2014,09,24,04,47,16.10
2014,09,24,04,48,16.10
2014,09,24,04,49,16.10
2014,09,24,04,50,16.00
2014,09,24,04,51,16.00
2014,09,24,04,52,16.00
2014,09,24,04,53,16.00
2014,09,24,04,54,16.00
2014,09,24,04,55,16.00
2014,09,24,04,56,16.00
2014,09,24,04,57,16.00
2014,09,24,04,58,16.10
2014,09,24,04,59,16.10
2014,09,24,05,00,16.10
2014,09,24,05,01,16.10
2014,09,24,05,02,16.10
2014,09,24,05,03,16.10
2014,09,24,05,04,16.10
2014,09,24,05,05,16.10
2014,09,24,05,06,16.10
2014,09,24,05,07,16.10
2014,09,24,05,08,16.10
2014,09,24,05,09,16.10
2014,09,24,05,10,16.10
2014,09,24,05,11,16.10
2014,09,24,05,12,16.10
2014,09,24,05,13,16.00
2014,09,24,05,14,16.00
2014,09,24,05,15,16.00
2014,09,24,05,16,16.00
2014,09,24,05,17,15.90
2014,09,24,05,18,15.90
2014,09,24,05,19,16.00
2014,09,24,05,20,16.00
2014,09,24,05,21,16.00
2014,09,24,05,22,16.00
2014,09,24,05,23,16.10
2014,09,24,05,24,16.10
2014,09,24,05,25,16.10
2014,09,24,05,26,16.10
2014,09,24,05,27,16.00
2014,09,24,05,28,16.00
2014,09,24,05,29,16.00
2014,09,24,05,30,16.10
2014,09,24,05,31,16.10
2014,09,24,05,32,16.10
2014,09,24,05,33,16.10
2014,09,24,05,34,16.20
2014,09,24,05,35,16.20
2014,09,24,05,36,16.20
2014,09,24,05,37,16.20
2014,09,24,05,38,16.20
2014,09,24,05,39,16.20
2014,09,24,05,40,16.20
2014,09,24,05,41,16.20
2014,09,24,05,42,16.20
2014,09,24,05,43,16.20
2014,09,24,05,44,16.10
2014,09,24,05,45,16.10
2014,09,24,05,46,16.10
2014,09,24,05,47,16.10
2014,09,24,05,48,16.10
2014,09,24,05,49,16.10
2014,09,24,05,50,16.10
2014,09,24,05,51,16.20
2014,09,24,05,52,16.20
2014,09,24,05,53,16.20
2014,09,24,05,54,16.20
2014,09,24,05,55,16.20
2014,09,24,05,56,16.20
2014,09,24,05,57,16.20
2014,09,24,05,58,16.20
2014,09,24,05,59,16.20
2014,09,24,06,00,16.20
2014,09,24,06,01,16.20
2014,09,24,06,02,16.20
2014,09,24,06,03,16.20
2014,09,24,06,04,16.20
2014,09,24,06,05,16.20
2014,09,24,06,06,16.20
2014,09,24,06,07,16.20
2014,09,24,06,08,16.30
2014,09,24,06,09,16.30
2014,09,24,06,10,16.30
2014,09,24,06,11,16.30
2014,09,24,06,12,16.30
2014,09,24,06,13,16.30
2014,09,24,06,14,16.30
2014,09,24,06,15,16.30
2014,09,24,06,16,16.30
2014,09,24,06,17,16.30
2014,09,24,06,18,16.30
2014,09,24,06,19,16.40
2014,09,24,06,20,16.40
2014,09,24,06,21,16.40
2014,09,24,06,22,16.40
2014,09,24,06,23,16.40
2014,09,24,06,24,16.40
2014,09,24,06,25,16.40
2014,09,24,06,26,16.40
2014,09,24,06,27,16.40
2014,09,24,06,28,16.40
2014,09,24,06,29,16.40
2014,09,24,06,30,16.40
2014,09,24,06,31,16.40
2014,09,24,06,32,16.40
2014,09,24,06,33,16.40
2014,09,24,06,34,16.40
2014,09,24,06,35,16.30
2014,09,24,06,36,16.30
2014,09,24,06,37,16.30
2014,09,24,06,38,16.30
2014,09,24,06,39,16.30
2014,09,24,06,40,16.30
2014,09,24,06,41,16.30
2014,09,24,06,42,16.30
2014,09,24,06,43,16.30
2014,09,24,06,44,16.30
2014,09,24,06,45,16.30
2014,09,24,06,46,16.30
2014,09,24,06,47,16.30
2014,09,24,06,48,16.30
2014,09,24,06,49,16.30
2014,09,24,06,50,16.30
2014,09,24,06,51,16.30
2014,09,24,06,52,16.30
2014,09,24,06,53,16.30
2014,09,24,06,54,16.30
2014,09,24,06,55,16.30
2014,09,24,06,56,16.30
2014,09,24,06,57,16.30
2014,09,24,06,58,16.30
2014,09,24,06,59,16.30
2014,09,24,07,00,16.30
2014,09,24,07,01,16.40
2014,09,24,07,02,16.40
2014,09,24,07,03,16.40
2014,09,24,07,04,16.30
2014,09,24,07,05,16.30
2014,09,24,07,06,16.30
2014,09,24,07,07,16.30
2014,09,24,07,08,16.30
2014,09,24,07,09,16.30
2014,09,24,07,10,16.30
2014,09,24,07,11,16.20
2014,09,24,07,12,16.20
2014,09,24,07,13,16.20
2014,09,24,07,14,16.20
2014,09,24,07,15,16.20
2014,09,24,07,16,16.20
2014,09,24,07,17,16.20
2014,09,24,07,18,16.20
2014,09,24,07,19,16.20
2014,09,24,07,20,16.10
2014,09,24,07,21,16.10
2014,09,24,07,22,16.10
2014,09,24,07,23,16.10
2014,09,24,07,24,16.10
2014,09,24,07,25,16.10
2014,09,24,07,26,16.10
2014,09,24,07,27,16.10
2014,09,24,07,28,16.20
2014,09,24,07,29,16.20
2014,09,24,07,30,16.20
2014,09,24,07,31,16.20
2014,09,24,07,32,16.20
2014,09,24,07,33,16.20
2014,09,24,07,34,16.20
2014,09,24,07,35,16.30
2014,09,24,07,36,16.30
2014,09,24,07,37,16.30
2014,09,24,07,38,16.30
2014,09,24,07,39,16.30
2014,09,24,07,40,16.30
2014,09,24,07,41,16.30
2014,09,24,07,42,16.30
2014,09,24,07,43,16.30
2014,09,24,07,44,16.30
2014,09,24,07,45,16.30
2014,09,24,07,46,16.30
2014,09,24,07,47,16.30
2014,09,24,07,48,16.40
2014,09,24,07,49,16.30
2014,09,24,07,50,16.40
2014,09,24,07,51,16.40
2014,09,24,07,52,16.40
2014,09,24,07,53,16.40
2014,09,24,07,54,16.40
2014,09,24,07,55,16.40
2014,09,24,07,56,16.30
2014,09,24,07,57,16.30
2014,09,24,07,58,16.30
2014,09,24,07,59,16.30
2014,09,24,08,00,16.30
2014,09,24,08,01,16.30
2014,09,24,08,02,16.30
2014,09,24,08,03,16.30
2014,09,24,08,04,16.30
2014,09,24,08,05,16.30
2014,09,24,08,06,16.30
2014,09,24,08,07,16.30
2014,09,24,08,08,16.30
2014,09,24,08,09,16.30
2014,09,24,08,10,16.30
2014,09,24,08,11,16.30
2014,09,24,08,12,16.30
2014,09,24,08,13,16.30
2014,09,24,08,14,16.40
2014,09,24,08,15,16.40
2014,09,24,08,16,16.40
2014,09,24,08,17,16.40
2014,09,24,08,18,16.50
2014,09,24,08,19,16.50
2014,09,24,08,20,16.50
2014,09,24,08,21,16.50
2014,09,24,08,22,16.60
2014,09,24,08,23,16.60
2014,09,24,08,24,16.50
2014,09,24,08,25,16.50
2014,09,24,08,26,16.60
2014,09,24,08,27,16.60
2014,09,24,08,28,16.70
2014,09,24,08,29,16.70
2014,09,24,08,30,16.80
2014,09,24,08,31,16.80
2014,09,24,08,32,16.80
2014,09,24,08,33,16.80
2014,09,24,08,34,16.90
2014,09,24,08,35,16.90
2014,09,24,08,36,16.90
2014,09,24,08,37,16.90
2014,09,24,08,38,16.90
2014,09,24,08,39,16.90
2014,09,24,08,40,16.90
2014,09,24,08,41,16.90
2014,09,24,08,42,16.90
2014,09,24,08,43,16.90
2014,09,24,08,44,16.90
2014,09,24,08,45,16.90
2014,09,24,08,46,16.90
2014,09,24,08,47,16.90
2014,09,24,08,48,16.90
2014,09,24,08,49,16.90
2014,09,24,08,50,16.80
2014,09,24,08,51,16.80
2014,09,24,08,52,16.90
2014,09,24,08,53,16.90
2014,09,24,08,54,16.90
2014,09,24,08,55,16.90
2014,09,24,08,56,16.90
2014,09,24,08,57,17.00
2014,09,24,08,58,17.00
2014,09,24,08,59,17.00
2014,09,24,09,00,17.00
2014,09,24,09,01,17.10
2014,09,24,09,02,17.10
2014,09,24,09,03,17.10
2014,09,24,09,04,17.20
2014,09,24,09,05,17.20
2014,09,24,09,06,17.20
2014,09,24,09,07,17.20
2014,09,24,09,08,17.20
2014,09,24,09,09,17.20
2014,09,24,09,10,17.20
2014,09,24,09,11,17.10
2014,09,24,09,12,17.10
2014,09,24,09,13,17.10
2014,09,24,09,14,17.10
2014,09,24,09,15,17.10
2014,09,24,09,16,17.10
2014,09,24,09,17,17.10
2014,09,24,09,18,17.10
2014,09,24,09,19,17.10
2014,09,24,09,20,17.10
2014,09,24,09,21,17.10
2014,09,24,09,22,17.10
2014,09,24,09,23,17.10
2014,09,24,09,24,17.10
2014,09,24,09,25,17.10
2014,09,24,09,26,17.10
2014,09,24,09,27,17.10
2014,09,24,09,28,17.10
2014,09,24,09,29,17.10
2014,09,24,09,30,17.10
2014,09,24,09,31,17.10
2014,09,24,09,32,17.10
2014,09,24,09,33,17.10
2014,09,24,09,34,17.10
2014,09,24,09,35,17.10
2014,09,24,09,36,17.10
2014,09,24,09,37,17.10
2014,09,24,09,38,17.10
2014,09,24,09,39,17.10
2014,09,24,09,40,17.00
2014,09,24,09,41,17.00
2014,09,24,09,42,17.00
2014,09,24,09,43,17.00
2014,09,24,09,44,16.90
2014,09,24,09,45,16.90
2014,09,24,09,46,16.90
2014,09,24,09,47,16.90
2014,09,24,09,48,16.90
2014,09,24,09,49,16.90
2014,09,24,09,50,16.90
2014,09,24,09,51,16.90
2014,09,24,09,52,16.90
2014,09,24,09,53,16.90
2014,09,24,09,54,16.90
2014,09,24,09,55,16.90
2014,09,24,09,56,16.90
2014,09,24,09,57,17.00
2014,09,24,09,58,17.00
2014,09,24,09,59,17.00
2014,09,24,10,00,17.00
2014,09,24,10,01,17.00
2014,09,24,10,02,17.00
2014,09,24,10,03,17.00
2014,09,24,10,04,17.00
2014,09,24,10,05,17.00
2014,09,24,10,06,17.00
2014,09,24,10,07,17.00
2014,09,24,10,08,17.00
2014,09,24,10,09,17.10
2014,09,24,10,10,17.10
2014,09,24,10,11,17.20
2014,09,24,10,12,17.30
2014,09,24,10,13,17.40
2014,09,24,10,14,17.40
2014,09,24,10,15,17.50
2014,09,24,10,16,17.60
2014,09,24,10,17,17.70
2014,09,24,10,18,17.80
2014,09,24,10,19,17.80
2014,09,24,10,20,17.90
2014,09,24,10,21,17.90
2014,09,24,10,22,17.90
2014,09,24,10,23,17.80
2014,09,24,10,24,17.80
2014,09,24,10,25,17.80
2014,09,24,10,26,17.80
2014,09,24,10,27,17.70
2014,09,24,10,28,17.70
2014,09,24,10,29,17.70
2014,09,24,10,30,17.70
2014,09,24,10,31,17.70
2014,09,24,10,32,17.70
2014,09,24,10,33,17.80
2014,09,24,10,34,17.90
2014,09,24,10,35,18.00
2014,09,24,10,36,18.10
2014,09,24,10,37,18.20
2014,09,24,10,38,18.20
2014,09,24,10,39,18.30
2014,09,24,10,40,18.30
2014,09,24,10,41,18.40
2014,09,24,10,42,18.40
2014,09,24,10,43,18.40
2014,09,24,10,44,18.40
2014,09,24,10,45,18.40
2014,09,24,10,46,18.40
2014,09,24,10,47,18.40
2014,09,24,10,48,18.40
2014,09,24,10,49,18.30
2014,09,24,10,50,18.30
2014,09,24,10,51,18.30
2014,09,24,10,52,18.30
2014,09,24,10,53,18.30
2014,09,24,10,54,18.30
2014,09,24,10,55,18.20
2014,09,24,10,56,18.20
2014,09,24,10,57,18.20
2014,09,24,10,58,18.10
2014,09,24,10,59,18.10
2014,09,24,11,00,18.00
2014,09,24,11,01,18.00
2014,09,24,11,02,18.00
2014,09,24,11,03,17.90
2014,09,24,11,04,17.90
2014,09,24,11,05,17.90
2014,09,24,11,06,17.80
2014,09,24,11,07,17.80
2014,09,24,11,08,17.70
2014,09,24,11,09,17.70
2014,09,24,11,10,17.60
2014,09,24,11,11,17.60
2014,09,24,11,12,17.50
2014,09,24,11,13,17.50
2014,09,24,11,14,17.40
2014,09,24,11,15,17.40
2014,09,24,11,16,17.30
2014,09,24,11,17,17.30
2014,09,24,11,18,17.30
2014,09,24,11,19,17.30
2014,09,24,11,20,17.30
2014,09,24,11,21,17.30
2014,09,24,11,22,17.30
2014,09,24,11,23,17.40
2014,09,24,11,24,17.40
2014,09,24,11,25,17.40
2014,09,24,11,26,17.50
2014,09,24,11,27,17.60
2014,09,24,11,28,17.70
2014,09,24,11,29,17.80
2014,09,24,11,30,17.90
2014,09,24,11,31,18.10
2014,09,24,11,32,18.20
2014,09,24,11,33,18.30
2014,09,24,11,34,18.40
2014,09,24,11,35,18.60
2014,09,24,11,36,18.70
2014,09,24,11,37,18.70
2014,09,24,11,38,18.80
2014,09,24,11,39,18.90
2014,09,24,11,40,19.00
2014,09,24,11,41,19.10
2014,09,24,11,42,19.20
2014,09,24,11,43,19.30
2014,09,24,11,44,19.30
2014,09,24,11,45,19.40
2014,09,24,11,46,19.40
2014,09,24,11,47,19.50
2014,09,24,11,48,19.50
2014,09,24,11,49,19.60
2014,09,24,11,50,19.60
2014,09,24,11,51,19.60
2014,09,24,11,52,19.60
2014,09,24,11,53,19.70
2014,09,24,11,54,19.70
2014,09,24,11,55,19.70
2014,09,24,11,56,19.70
2014,09,24,11,57,19.70
2014,09,24,11,58,19.70
2014,09,24,11,59,19.70
2014,09,24,12,00,19.70
2014,09,24,12,01,19.70
2014,09,24,12,02,19.70
2014,09,24,12,03,19.70
2014,09,24,12,04,19.70
2014,09,24,12,05,19.70
2014,09,24,12,06,19.70
2014,09,24,12,07,19.70
2014,09,24,12,08,19.70
2014,09,24,12,09,19.60
2014,09,24,12,10,19.50
2014,09,24,12,11,19.50
2014,09,24,12,12,19.40
2014,09,24,12,13,19.40
2014,09,24,12,14,19.40
2014,09,24,12,15,19.40
2014,09,24,12,16,19.30
2014,09,24,12,17,19.30
2014,09,24,12,18,19.20
2014,09,24,12,19,19.20
2014,09,24,12,20,19.10
2014,09,24,12,21,19.10
2014,09,24,12,22,19.00
2014,09,24,12,23,19.00
2014,09,24,12,24,18.90
2014,09,24,12,25,18.90
2014,09,24,12,26,18.90
2014,09,24,12,27,18.80
2014,09,24,12,28,18.80
2014,09,24,12,29,18.80
2014,09,24,12,30,18.80
2014,09,24,12,31,18.70
2014,09,24,12,32,18.70
2014,09,24,12,33,18.70
2014,09,24,12,34,18.70
2014,09,24,12,35,18.70
2014,09,24,12,36,18.60
2014,09,24,12,37,18.60
2014,09,24,12,38,18.50
2014,09,24,12,39,18.50
2014,09,24,12,40,18.40
2014,09,24,12,41,18.40
2014,09,24,12,42,18.40
2014,09,24,12,43,18.40
2014,09,24,12,44,18.40
2014,09,24,12,45,18.40
2014,09,24,12,46,18.40
2014,09,24,12,47,18.40
2014,09,24,12,48,18.40
2014,09,24,12,49,18.40
2014,09,24,12,50,18.50
2014,09,24,12,51,18.50
2014,09,24,12,52,18.60
2014,09,24,12,53,18.60
2014,09,24,12,54,18.70
2014,09,24,12,55,18.80
2014,09,24,12,56,18.80
2014,09,24,12,57,18.90
2014,09,24,12,58,19.00
2014,09,24,12,59,19.10
2014,09,24,13,00,19.20
2014,09,24,13,01,19.30
2014,09,24,13,02,19.40
2014,09,24,13,03,19.50
2014,09,24,13,04,19.60
2014,09,24,13,05,19.70
2014,09,24,13,06,19.80
2014,09,24,13,07,19.80
2014,09,24,13,08,19.90
2014,09,24,13,09,19.90
2014,09,24,13,10,19.90
2014,09,24,13,11,19.90
2014,09,24,13,12,19.80
2014,09,24,13,13,19.80
2014,09,24,13,14,19.80
2014,09,24,13,15,19.70
2014,09,24,13,16,19.60
2014,09,24,13,17,19.50
2014,09,24,13,18,19.40
2014,09,24,13,19,19.30
2014,09,24,13,20,19.20
2014,09,24,13,21,19.20
2014,09,24,13,22,19.20
2014,09,24,13,23,19.20
2014,09,24,13,24,19.10
2014,09,24,13,25,19.10
2014,09,24,13,26,19.00
2014,09,24,13,27,18.90
2014,09,24,13,28,18.90
2014,09,24,13,29,18.90
2014,09,24,13,30,18.80
2014,09,24,13,31,18.80
2014,09,24,13,32,18.80
2014,09,24,13,33,18.80
2014,09,24,13,34,18.90
2014,09,24,13,35,18.90
2014,09,24,13,36,18.90
2014,09,24,13,37,18.90
2014,09,24,13,38,18.90
2014,09,24,13,39,19.00
2014,09,24,13,40,19.00
2014,09,24,13,41,19.10
2014,09,24,13,42,19.10
2014,09,24,13,43,19.10
2014,09,24,13,44,19.10
2014,09,24,13,45,19.10
2014,09,24,13,46,19.00
2014,09,24,13,47,19.00
2014,09,24,13,48,18.90
2014,09,24,13,49,18.80
2014,09,24,13,50,18.80
2014,09,24,13,51,18.60
2014,09,24,13,52,18.60
2014,09,24,13,53,18.50
2014,09,24,13,54,18.40
2014,09,24,13,55,18.30
2014,09,24,13,56,18.30
2014,09,24,13,57,18.30
2014,09,24,13,58,18.20
2014,09,24,13,59,18.20
2014,09,24,14,00,18.10
2014,09,24,14,01,18.10
2014,09,24,14,02,18.10
2014,09,24,14,03,18.10
2014,09,24,14,04,18.10
2014,09,24,14,05,18.10
2014,09,24,14,06,18.10
2014,09,24,14,07,18.10
2014,09,24,14,08,18.10
2014,09,24,14,09,18.00
2014,09,24,14,10,18.00
2014,09,24,14,11,18.10
2014,09,24,14,12,18.10
2014,09,24,14,13,18.20
2014,09,24,14,14,18.20
2014,09,24,14,15,18.20
2014,09,24,14,16,18.30
2014,09,24,14,17,18.30
2014,09,24,14,18,18.30
2014,09,24,14,19,18.30
2014,09,24,14,20,18.30
2014,09,24,14,21,18.30
2014,09,24,14,22,18.30
2014,09,24,14,23,18.30
2014,09,24,14,24,18.30
2014,09,24,14,25,18.30
2014,09,24,14,26,18.30
2014,09,24,14,27,18.20
2014,09,24,14,28,18.20
2014,09,24,14,29,18.10
2014,09,24,14,30,18.10
2014,09,24,14,31,18.00
2014,09,24,14,32,17.90
2014,09,24,14,33,17.80
2014,09,24,14,34,17.80
2014,09,24,14,35,17.80
2014,09,24,14,36,17.80
2014,09,24,14,37,17.80
2014,09,24,14,38,17.70
2014,09,24,14,39,17.70
2014,09,24,14,40,17.70
2014,09,24,14,41,17.70
2014,09,24,14,42,17.70
2014,09,24,14,43,17.70
2014,09,24,14,44,17.70
2014,09,24,14,45,17.80
2014,09,24,14,46,17.80
2014,09,24,14,47,17.90
2014,09,24,14,48,18.00
2014,09,24,14,49,18.00
2014,09,24,14,50,18.10
2014,09,24,14,51,18.10
2014,09,24,14,52,18.10
2014,09,24,14,53,18.00
2014,09,24,14,54,18.00
2014,09,24,14,55,18.00
2014,09,24,14,56,17.90
2014,09,24,14,57,17.90
2014,09,24,14,58,17.80
2014,09,24,14,59,17.70
2014,09,24,15,00,17.70
2014,09,24,15,01,17.70
2014,09,24,15,02,17.70
2014,09,24,15,03,17.70
2014,09,24,15,04,17.70
2014,09,24,15,05,17.70
2014,09,24,15,06,17.70
2014,09,24,15,07,17.70
2014,09,24,15,08,17.80
2014,09,24,15,09,17.80
2014,09,24,15,10,17.90
2014,09,24,15,11,17.90
2014,09,24,15,12,18.00
2014,09,24,15,13,18.10
2014,09,24,15,14,18.10
2014,09,24,15,15,18.20
2014,09,24,15,16,18.30
2014,09,24,15,17,18.30
2014,09,24,15,18,18.30
2014,09,24,15,19,18.40
2014,09,24,15,20,18.40
2014,09,24,15,21,18.40
2014,09,24,15,22,18.40
2014,09,24,15,23,18.30
2014,09,24,15,24,18.30
2014,09,24,15,25,18.30
2014,09,24,15,26,18.30
2014,09,24,15,27,18.30
2014,09,24,15,28,18.40
2014,09,24,15,29,18.40
2014,09,24,15,30,18.40
2014,09,24,15,31,18.50
2014,09,24,15,32,18.50
2014,09,24,15,33,18.50
2014,09,24,15,34,18.50
2014,09,24,15,35,18.50
2014,09,24,15,36,18.40
2014,09,24,15,37,18.40
2014,09,24,15,38,18.40
2014,09,24,15,39,18.40
2014,09,24,15,40,18.30
2014,09,24,15,41,18.30
2014,09,24,15,42,18.30
2014,09,24,15,43,18.30
2014,09,24,15,44,18.20
2014,09,24,15,45,18.20
2014,09,24,15,46,18.20
2014,09,24,15,47,18.10
2014,09,24,15,48,18.10
2014,09,24,15,49,18.10
2014,09,24,15,50,18.00
2014,09,24,15,51,18.00
2014,09,24,15,52,17.90
2014,09,24,15,53,17.90
2014,09,24,15,54,17.80
2014,09,24,15,55,17.80
2014,09,24,15,56,17.70
2014,09,24,15,57,17.60
2014,09,24,15,58,17.60
2014,09,24,15,59,17.50
2014,09,24,16,00,17.50
2014,09,24,16,01,17.40
2014,09,24,16,02,17.40
2014,09,24,16,03,17.40
2014,09,24,16,04,17.40
2014,09,24,16,05,17.40
2014,09,24,16,06,17.50
2014,09,24,16,07,17.50
2014,09,24,16,08,17.50
2014,09,24,16,09,17.60
2014,09,24,16,10,17.60
2014,09,24,16,11,17.60
2014,09,24,16,12,17.70
2014,09,24,16,13,17.70
2014,09,24,16,14,17.70
2014,09,24,16,15,17.80
2014,09,24,16,16,17.80
2014,09,24,16,17,17.80
2014,09,24,16,18,17.80
2014,09,24,16,19,17.80
2014,09,24,16,20,17.80
2014,09,24,16,21,17.70
2014,09,24,16,22,17.70
2014,09,24,16,23,17.70
2014,09,24,16,24,17.70
2014,09,24,16,25,17.70
2014,09,24,16,26,17.70
2014,09,24,16,27,17.70
2014,09,24,16,28,17.70
2014,09,24,16,29,17.70
2014,09,24,16,30,17.70
2014,09,24,16,31,17.80
2014,09,24,16,32,17.80
2014,09,24,16,33,17.90
2014,09,24,16,34,17.90
2014,09,24,16,35,18.00
2014,09,24,16,36,18.00
2014,09,24,16,37,18.00
2014,09,24,16,38,18.10
2014,09,24,16,39,18.10
2014,09,24,16,40,18.10
2014,09,24,16,41,18.00
2014,09,24,16,42,18.00
2014,09,24,16,43,18.00
2014,09,24,16,44,18.00
2014,09,24,16,45,18.00
2014,09,24,16,46,17.90
2014,09,24,16,47,17.90
2014,09,24,16,48,17.90
2014,09,24,16,49,17.80
2014,09,24,16,50,17.80
2014,09,24,16,51,17.70
2014,09,24,16,52,17.70
2014,09,24,16,53,17.60
2014,09,24,16,54,17.60
2014,09,24,16,55,17.60
2014,09,24,16,56,17.50
2014,09,24,16,57,17.50
2014,09,24,16,58,17.40
2014,09,24,16,59,17.40
2014,09,24,17,00,17.30
2014,09,24,17,01,17.30
2014,09,24,17,02,17.20
2014,09,24,17,03,17.10
2014,09,24,17,04,17.00
2014,09,24,17,05,16.80
2014,09,24,17,06,16.70
2014,09,24,17,07,16.60
2014,09,24,17,08,16.50
2014,09,24,17,09,16.40
2014,09,24,17,10,16.40
2014,09,24,17,11,16.30
2014,09,24,17,12,16.20
2014,09,24,17,13,16.20
2014,09,24,17,14,16.10
2014,09,24,17,15,16.10
2014,09,24,17,16,16.00
2014,09,24,17,17,16.00
2014,09,24,17,18,15.90
2014,09,24,17,19,15.90